Barksdale AFB, LA

5:07 AM CST on January 23, 2017 (GMT -0600)
Barksdale Air Force Base

Weather History for KBAD - October, 2012

Change the Weather History Date:

Wednesday, October 31, 2012

  Actual Average Record
Temperature  
Mean Temperature 60 °F -  
Max Temperature 78 °F 69 °F 87 °F (2016)
Min Temperature 44 °F 49 °F 39 °F (2011)
Degree Days  
Heating Degree Days 4    
Growing Degree Days 10 (Base 50)    
Moisture  
Dew Point 50 °F    
Average Humidity 72    
Maximum Humidity 94    
Minimum Humidity 40    
Precipitation  
Precipitation 0.00 in - - ()
Sea Level Pressure  
Sea Level Pressure 29.99 in    
Wind  
Wind Speed 4 mph (SSW)    
Max Wind Speed 13 mph    
Max Gust Speed -    
Visibility 10 miles    
Events      
Averages and records for this station are not official NWS values.
T = Trace of Precipitation, MM = Missing Value Source: NWS Daily Summary

Daily Weather History Graph

Daily Weather History Graph

Search for Another Location

Airport or City:

Trip Planner

Search our weather history database for the weather conditions in past years. The results will help you decide how hot, cold, wet, or windy it might be!

Date:

Astronomy

Oct. 31, 2012 Rise Set
Actual Time 7:31 AM CDT 6:24 PM CDT
Civil Twilight 7:06 AM CDT 6:49 PM CDT
Nautical Twilight 6:37 AM CDT 7:18 PM CDT
Astronomical Twilight 6:08 AM CDT 7:47 PM CDT
Moon 7:42 PM CDT (10/31) 9:07 AM CDT (10/31)
Length of Visible Light 11h 43m
Length of Day
10h 52m
Full, 97% of the Moon is Illuminated
Oct 31
Full
Nov 6
Last Quarter
Nov 13
New
Nov 20
First Quarter
Nov 28
Full

Hourly Weather History & Observations

Time (CDT) Temp. Windchill Dew Point Humidity Pressure Visibility Wind Dir Wind Speed Gust Speed Precip Events Conditions
12:55 AM 48.2 °F - 44.6 °F 87% 30.00 in 10.0 mi Calm Calm - N/A   Clear
1:55 AM 47.8 °F - 44.4 °F 88% 29.99 in 10.0 mi SE 3.5 mph - N/A   Clear
2:55 AM 44.4 °F 42.0 °F 42.1 °F 91% 29.99 in 10.0 mi South 4.6 mph - N/A   Clear
3:55 AM 49.5 °F - 44.1 °F 82% 29.98 in 10.0 mi Calm Calm - N/A   Clear
4:55 AM 50.0 °F - 43.9 °F 79% 29.98 in 10.0 mi SSE 3.5 mph - N/A   Clear
5:55 AM 48.6 °F - 44.4 °F 86% 29.99 in 10.0 mi SSE 3.5 mph - N/A   Clear
6:55 AM 47.5 °F - 44.8 °F 90% 29.99 in 10.0 mi SSE 4.6 mph - N/A   Clear
7:55 AM 47.8 °F - 45.7 °F 92% 29.99 in 10.0 mi SSE 4.6 mph - N/A   Clear
8:37 AM 53.6 °F - 50.0 °F 88% 30.00 in 10.0 mi SSE 3.5 mph - N/A   Light Drizzle
8:39 AM 53.6 °F - 50.0 °F 88% 30.00 in 10.0 mi SSE 3.5 mph - N/A   Clear
8:55 AM 55.4 °F - 50.5 °F 84% 30.00 in 10.0 mi South 3.5 mph - N/A   Clear
9:55 AM 64.4 °F - 54.5 °F 70% 29.99 in 10.0 mi WSW 8.1 mph - N/A   Clear
10:55 AM 71.1 °F - 55.9 °F 59% 30.00 in 10.0 mi West 11.5 mph - N/A   Clear
11:55 AM 73.4 °F - 55.4 °F 53% 30.00 in 10.0 mi West 12.7 mph - N/A   Clear
12:55 PM 75.7 °F - 56.3 °F 51% 29.96 in 10.0 mi SW 8.1 mph - N/A   Clear
1:55 PM 77.9 °F - 55.6 °F 46% 29.96 in 10.0 mi NW 11.5 mph - N/A   Clear
2:55 PM 77.7 °F - 54.3 °F 44% 29.96 in 10.0 mi NNW 9.2 mph - N/A   Clear
3:55 PM 77.5 °F - 53.4 °F 43% 29.96 in 10.0 mi North 6.9 mph - N/A   Clear
4:55 PM 76.8 °F - 50.9 °F 40% 29.95 in 7.0 mi North 9.2 mph - N/A   Clear
5:55 PM 73.0 °F - 52.5 °F 48% 29.96 in 10.0 mi North 6.9 mph - N/A   Clear
6:55 PM 68.0 °F - 52.3 °F 57% 29.98 in 10.0 mi NNE 4.6 mph - N/A   Clear
7:55 PM 63.1 °F - 52.9 °F 69% 29.99 in 10.0 mi Calm Calm - N/A   Clear
8:55 PM 60.1 °F - 50.9 °F 72% 30.00 in 10.0 mi Calm Calm - N/A   Clear
9:55 PM 55.9 °F - 51.1 °F 84% 30.01 in 10.0 mi Calm Calm - N/A   Clear
10:55 PM 54.0 °F - 51.1 °F 90% 30.01 in 10.0 mi Calm Calm - N/A   Clear
11:55 PM 53.1 °F - 51.4 °F 94% 30.01 in 10.0 mi Calm Calm - N/A   Clear